Location: Bernes
(49.9098°N, 3.0997°E)
Time: 15:58:59
(UTC+00:00)

Daily predictions for brighter satellites

Satellite Brightness Start Highest point End
(mag) Time Altitude Azimuth Time Altitude Azimuth Time Altitude Azimuth
Cosmos 1802 Rocket 4.3 17:27:35 10° N 17:34:01 82° W 17:40:27 10° S
Cosmos 2285 Rocket 4.2 17:29:59 10° NNW 17:36:20 57° ENE 17:42:38 10° SE
Cosmos 2233 Rocket 4.0 17:30:39 10° N 17:36:56 70° ENE 17:43:13 10° SSE
CZ-4 R/B 4.3 17:33:40 10° SSE 17:37:36 62° ENE 17:41:32 10° N
USA 290 2.4 17:34:30 10° SSW 17:37:41 73° WNW 17:40:53 10° NNE
NOSS 0 Rocket 4.0 17:32:39 10° NNW 17:38:57 83° ENE 17:45:12 10° SSE
USA 306 3.9 17:37:45 10° WNW 17:40:25 26° SW 17:42:19 10° SSE
ARIANE 6 FM1 Upper Stage 4.2 17:38:54 10° NNW 17:41:54 20° NNE 17:44:54 10° ENE
SMAP 4.5 17:38:13 10° S 17:42:40 44° W 17:47:08 10° NNW
Thor Agena Rocket 4.5 17:39:02 10° S 17:44:00 54° WSW 17:49:05 10° NNW
NOSS 3-4 (A) 3.9 17:38:17 10° NW 17:44:41 57° NE 17:52:13 10° ESE
NOSS 3-4 (C) 3.9 17:38:33 10° NW 17:44:58 56° NE 17:52:30 10° ESE
Cosmos 1725 Rocket 4.3 17:39:26 10° NNW 17:45:41 75° W 17:51:56 10° S
Cosmos 2151 Rocket 3.7 17:44:55 10° N 17:49:27 86° W 17:53:57 10° S
Meteor 1-11 4.3 17:46:30 10° S 17:52:08 85° E 17:57:55 10° NNE
Radarsat Rocket 4.1 17:49:33 10° SE 17:55:20 62° ENE 18:01:39 10° NNW
Cosmos 1607 4.0 17:49:22 10° SW 17:55:31 85° NW 18:01:46 10° NE
Cosmos 1455 Rocket 3.4 17:53:00 10° N 17:57:04 39° ENE 18:01:06 10° SE
Cosmos 44 Rocket 4.3 17:55:06 10° S 17:59:14 27° ESE 18:03:11 11° ENE
YAOGAN 1 2.4 17:55:27 10° SSE 17:59:40 73° ENE 18:03:56 10° N
Cosmos 2228 3.9 17:56:24 10° NNE 17:59:54 25° ENE 18:03:23 10° SE
Cosmos 1975 Rocket 4.2 17:56:43 10° SE 17:59:58 21° E 18:03:12 10° NE
PSLV R/B 3.6 17:56:33 10° SE 18:00:30 47° ENE 18:04:27 10° N
COSMO-SKYMED 1 2.8 17:56:35 10° NNE 18:00:31 42° E 18:04:26 10° S
ATLAS 2AS CENTAUR R/B 4.0 17:54:55 10° W 18:00:56 31° NNW 18:06:53 10° NE
Cosmos 1782 4.0 17:59:12 10° NNE 18:01:42 17° ENE 18:03:12 14° E
Cosmos 2297 Rocket 2.4 17:56:33 10° S 18:01:58 50° ESE 18:07:26 10° NE
Lacrosse 5 rocket 2.1 18:00:04 10° W 18:03:20 36° NNW 18:06:24 12° NE
DNEPR-1 R/B 4.3 18:00:04 10° NNW 18:04:38 46° NE 18:10:00 10° ESE
SPOT 1/Viking Rocket 4.1 18:01:38 10° S 18:06:42 64° WSW 18:11:49 10° NNW
Cosmos 2061 Rocket 4.2 18:00:58 10° N 18:07:23 84° W 18:13:41 10° S
Aureole 3 Rocket 2.5 18:03:34 10° N 18:07:35 65° ENE 18:10:47 10° SSE
CZ-2D R/B 3.2 18:05:36 10° SSE 18:09:30 79° ENE 18:13:32 10° NNW
Meteor 2-1 Rocket 4.5 18:03:59 10° NNW 18:09:49 80° W 18:15:43 10° S
Okean 1 Rocket 3.2 18:08:03 10° NNW 18:12:28 77° W 18:16:48 10° S
SL-16 R/B 4.3 18:07:18 10° N 18:12:41 32° WNW 18:18:04 10° WSW
CZ-4C R/B 2.1 18:08:51 10° SW 18:13:11 71° NW 18:18:49 10° NE
Cosmos 1464 Rocket 4.3 18:10:45 10° N 18:16:52 45° ENE 18:22:52 10° SE
Okean 2 Rocket 3.7 18:13:22 10° NNW 18:17:42 59° W 18:21:59 10° S
Cosmos 2344 4.3 18:13:07 10° SSE 18:19:30 27° ESE 18:23:43 16° ENE
Cosmos 2221 Rocket 3.6 18:15:37 10° S 18:20:05 87° W 18:24:38 10° N
USA 267 3.4 18:15:08 12° ENE 18:21:20 72° NNW 18:27:50 10° WSW
SJ-6B 2.9 18:21:11 10° SE 18:24:23 38° ENE 18:27:37 10° N
Cosmos 1980 4.0 18:24:30 10° NNW 18:30:09 71° WSW 18:35:45 10° SSE
Cosmos 2263 Rocket 3.2 18:26:13 10° SSE 18:30:36 24° ESE 18:31:44 22° E
Cosmos 1025 Rocket 3.8 18:26:29 10° SSW 18:30:42 53° WNW 18:34:59 10° N
Cosmos 2237 Rocket 2.5 18:29:46 10° NNW 18:35:26 70° WSW 18:41:05 10° SSE
Meteor 1-31 Rocket 3.7 18:36:36 24° NE 18:36:36 24° NE 18:38:48 10° N
SKYMED 2 4.5 18:32:55 10° N 18:37:08 50° WNW 18:41:20 10° SW
Meteor 1-27 4.3 18:32:08 10° NNW 18:37:57 89° ENE 18:43:47 10° S
SeaSat 1 4.3 18:37:54 10° S 18:42:15 31° WSW 18:46:37 10° NW
Cosmos 1570 Rocket 3.9 18:38:00 10° SSW 18:43:17 83° ESE 18:48:34 10° NNE
Resurs 01 Rocket 1.6 18:39:19 10° SSE 18:43:42 87° WSW 18:48:09 10° NNW
SPOT 5 3.3 18:45:52 26° ESE 18:48:06 41° ENE 18:52:53 10° N
NOSS 3-3 (C) 4.2 18:44:47 10° WSW 18:50:06 62° NW 18:55:59 13° NE
DMSP B5D1-3 4.4 18:47:48 10° NNE 18:52:56 81° ESE 18:58:03 10° SSW
Tiangong 0.1 18:53:47 10° SSW 18:55:41 16° S 18:55:41 16° S
Cosmos 2227 Rocket 2.1 18:55:41 10° SSW 19:01:14 62° ESE 19:05:15 19° NE
SL-16 R/B 2.2 18:55:46 10° NNW 19:01:24 63° ENE 19:03:59 32° SE
Cosmos 773 Rocket 4.0 18:58:54 10° SSW 19:04:10 87° WNW 19:09:30 10° NNE
Cosmos 1346 Rocket 3.6 19:00:43 10° S 19:02:50 32° SSE 19:02:50 32° SSE
Cosmos 2208 Rocket 3.9 18:59:09 10° SSW 19:04:24 88° ESE 19:09:46 10° NNE
Tsikada Rocket 4.3 19:02:28 10° SSE 19:08:08 40° E 19:13:51 10° NNE
CZ-4 R/B 2.7 19:17:56 26° N 19:17:56 26° N 19:19:46 10° N
Okean O Rocket 4.0 19:20:31 11° NNE 19:20:31 11° NNE 19:20:48 10° NNE
ARIANE 6 FM1 Upper Stage 2.7 19:17:36 10° NW 19:21:05 61° N 19:21:05 61° N
CZ-4B R/B 3.4 19:26:08 46° NE 19:26:08 46° NE 19:30:42 10° N
Terra 3.2 19:30:49 25° NNE 19:30:49 25° NNE 19:33:05 10° N
Cosmos 1544 Rocket 3.5 19:25:23 10° NNW 19:29:45 84° W 19:30:03 76° SSW
Cosmos 1816 Rocket 4.5 19:24:04 10° SSW 19:30:13 82° W 19:36:30 10° N
CZ-4B DEB 4.0 19:29:06 53° SE 19:30:20 73° ENE 19:35:47 10° NNW
CSL-04 Debris 4.1 19:30:41 35° SSE 19:33:08 90° ENE 19:38:36 10° NNW
Cosmos 2034 Rocket 4.0 19:28:34 10° NNW 19:34:46 80° W 19:40:57 10° S
Cosmos 1782 3.9 19:33:14 10° NNW 19:36:36 39° W 19:37:19 34° WSW
Cosmos 2228 4.5 19:33:07 10° NNW 19:36:57 35° W 19:40:47 10° SSW
Cosmos 1975 Rocket 4.1 19:33:13 10° SSW 19:37:23 44° WNW 19:41:33 10° N
TSX-5 4.1 19:32:17 10° NNW 19:37:23 83° NNW 19:37:23 83° NNW
CSL-04 Rocket 3.6 19:35:11 31° S 19:37:47 78° WSW 19:43:06 10° NNW
RESURS DK-1 4.3 19:34:14 10° NNW 19:35:40 19° N 19:35:40 19° N
Cosmos 44 Rocket 3.8 19:35:26 10° SW 19:40:20 59° NW 19:41:49 42° N
Lacrosse 5 rocket 3.0 19:37:48 10° NW 19:39:50 22° NNW 19:39:50 22° NNW
MOS 1 4.2 19:41:22 67° ENE 19:41:22 67° ENE 19:47:00 10° N
Cosmos 1634 Rocket 3.9 19:35:51 10° N 19:42:11 70° ENE 19:43:02 62° SE
Cosmos 2297 Rocket 3.6 19:41:03 10° WSW 19:46:13 35° NW 19:51:24 10° NNE
Cosmos 1943 3.5 19:43:41 10° NNW 19:48:32 53° NNE 19:48:32 53° NNE
ATLAS 2AS CENTAUR R/B 4.0 19:48:16 10° NW 19:53:55 26° N 19:55:21 25° NNE
BREEZE-M DEB (TANK) 3.8 19:38:28 10° W 19:55:38 68° S 19:56:30 61° SE
ERS-1 Rocket 3.8 20:02:09 41° N 20:02:09 41° N 20:05:25 10° NNW
CZ-4C R/B 3.8 19:58:16 10° WNW 20:02:29 26° NNW 20:04:22 22° NNE
BREEZE-M DEB (TANK) 4.2 19:58:05 10° SW 20:02:57 63° SE 20:04:47 54° ESE
Cosmos 972 Rocket 4.4 19:58:50 10° NNW 20:02:46 56° NNW 20:02:46 56° NNW
USA 267 3.8 20:02:29 42° NNE 20:03:56 49° N 20:10:11 10° WNW
Cosmos 2279 Rocket 4.2 19:58:24 10° N 20:03:21 56° NNE 20:03:21 56° NNE
Cosmos 2263 Rocket 2.5 20:08:20 10° SW 20:13:31 64° W 20:13:31 64° W
ADEOS 4.5 20:23:44 45° NW 20:23:44 45° NW 20:27:33 10° NNW
Cosmos 2344 3.5 20:25:29 10° SW 20:33:06 73° NW 20:33:48 69° N
SL-16 R/B 4.0 20:40:31 10° NW 20:45:03 25° WSW 20:45:52 25° WSW
Cosmos 2227 Rocket 3.8 20:40:45 10° WSW 20:45:40 30° NW 20:47:09 26° NNW
ATLAS 2AS CENTAUR R/B 4.4 21:39:52 10° NW 21:42:45 25° NNW 21:42:45 25° NNW
